PAMPLONA / NOAIN current weather conditions

sailwx.info

Air temperature 6.0° C
Dewpoint 3.0° C

Last reported at 2015-Mar-06 23:00 UTC.
Time now 2015-Mar-07 01:46 UTC

Location: N 42°46' W 001°38'.
View on Google Maps.

See reports from other nearby stations

  
Tides and Currents Weather Stations Pressure Air Temp Water Temp Dewpoint Dewpoint Depression Visibility Wind Speed Wind Dir Waves Ship Positions
date/time (UTC)wind fromknots sea level pressurealtimeterstation pressurevisibilityair tempwater tempwave heightnotes
2015-Mar-06 23:00 6.0
2015-Mar-06 22:30 6.0
2015-Mar-06 22:00 180 2 7.0
2015-Mar-06 21:30 7.0
2015-Mar-06 21:00 8.0
2015-Mar-06 20:30 170 3 8.0
2015-Mar-06 20:00 10.0
2015-Mar-06 19:30 12.0
2015-Mar-06 19:00 140 3 12.0
2015-Mar-06 18:30 150 6 12.0
2015-Mar-06 18:00 150 3 13.0
2015-Mar-06 17:30 160 3 16.0
2015-Mar-06 17:00 180 3 19.0
2015-Mar-06 16:30 19.0
2015-Mar-06 16:00 240 2 19.0
2015-Mar-06 15:30 190 3 19.0
2015-Mar-06 15:00 190 2 19.0
2015-Mar-06 14:30 19.0
2015-Mar-06 14:00 180 2 19.0
2015-Mar-06 13:30 190 1 18.0
2015-Mar-06 13:00 190 2 17.0
2015-Mar-06 12:30 17.0
2015-Mar-06 12:00 360 1 16.0
2015-Mar-06 11:30 210 1 15.0
2015-Mar-06 11:00 150 2 15.0
2015-Mar-06 10:30 160 3 14.0
2015-Mar-06 10:00 13.0
2015-Mar-06 09:30 160 3 11.0
2015-Mar-06 09:00 10.0
2015-Mar-06 08:30 8.0
2015-Mar-06 08:00 150 1 7.0
2015-Mar-06 07:30 160 2 5.0
2015-Mar-06 07:00 5.0
2015-Mar-06 06:30 280 3 4.0
2015-Mar-06 06:00 290 6 4.0
2015-Mar-06 05:30 290 4 4.0
2015-Mar-06 05:00 290 7 4.0
2015-Mar-06 04:30 300 7 4.0
2015-Mar-05 23:00 350 10 4.0
2015-Mar-05 22:30 360 11 4.0
2015-Mar-05 22:00 360 16 3.0
2015-Mar-05 21:30 360 12 4.0
2015-Mar-05 21:00 360 11 4.0
2015-Mar-05 20:30 350 13 4.0
2015-Mar-05 20:00 340 13 4.0
2015-Mar-05 19:30 340 12 5.4 4.0
2015-Mar-05 19:00 350 11 5.4 5.0
2015-Mar-05 18:30 020 12 5.4 7.0
2015-Mar-05 18:00 010 13 5.4 7.0
2015-Mar-05 17:30 020 11 5.4 8.0
2015-Mar-05 17:00 010 13 5.4 8.0
2015-Mar-05 16:30 010 13 gusting 23 5.4 8.0
2015-Mar-05 16:00 020 12 5.4 9.0
2015-Mar-05 15:30 020 17 gusting 27 5.4 9.0
2015-Mar-05 15:00 030 18 5.4 9.0
2015-Mar-05 14:30 030 19 5.4 9.0
2015-Mar-05 14:00 010 18 gusting 27 5.4 9.0
2015-Mar-05 13:30 020 18 gusting 27 5.4 9.0
2015-Mar-05 13:00 010 17 gusting 27 5.4 9.0
2015-Mar-05 12:30 010 17 gusting 27 5.4 9.0
2015-Mar-05 12:00 010 18 gusting 29 5.4 8.0
2015-Mar-05 11:30 010 20 gusting 38 5.4 8.0
2015-Mar-05 11:00 010 16 gusting 27 5.4 8.0
2015-Mar-05 10:30 340 18 5.4 7.0
2015-Mar-05 10:00 340 17 5.4 6.0
2015-Mar-05 09:30 350 13 5.4 6.0
2015-Mar-05 09:00 350 15 5.4 5.0
2015-Mar-05 08:30 340 12 5.4 4.0
2015-Mar-05 08:00 340 14 5.4 4.0
2015-Mar-05 07:30 330 13 5.4 3.0
2015-Mar-05 07:00 330 12 5.4 2.0
2015-Mar-05 06:30 330 12 5.4 2.0
2015-Mar-05 06:00 330 11 5.4 2.0
2015-Mar-05 05:30 330 11 5.4 2.0
2015-Mar-05 05:00 340 11 5.4 3.0
2015-Mar-05 04:30 350 13 5.4 3.0